Retour au catalogue

SL-16 DEB

ActifLEO
NORAD 23406·DEBRIS·🇷🇺 Russia

Lancé Nov 24, 1994 depuis Baikonur Cosmodrome

Loading…

Prochains Passages (prochaines 24 heures)

TLE

FraisSource: Space-Track

Époque: Sep 14, 2026, 09:08 UTC

1 23406U 94077C   26257.38089806  .00000032  00000-0  68307-4 0  9999
2 23406  71.0286 236.6642 0199793 151.7485   0.4132 13.73476442593377

Suivez SL-16 DEB en temps réel avec AllMySat

Download on the App Store